GFSFLT2_500_rhum_102.txt.gz
RH
39 40 39 37 38 35 35 35 35 35 34 34 32 28 29 26 20 8 11 12 12 15 19 29 36 13 20 13 26 29 64 84
37 40 41 42 42 41 40 38 38 38 38 38 35 32 30 29 27 14 8 7 9 19 18 21 29 21 16 36 31 28 35 95
35 41 44 43 44 44 44 42 42 42 47 45 37 30 26 27 27 23 14 8 7 16 16 16 21 35 37 44 37 28 30 74
31 38 44 45 46 49 49 49 52 65 61 51 48 33 26 24 24 25 24 16 9 7 9 12 19 51 33 30 28 22 32 39
27 36 39 43 47 49 53 49 56 62 64 53 54 46 33 26 23 22 21 19 16 8 8 14 11 28 44 31 28 35 18 25
30 33 42 47 47 49 53 53 55 49 54 55 59 60 45 35 29 23 22 19 16 12 8 14 13 24 42 39 31 16 12 20
28 29 34 40 41 48 52 59 64 68 42 50 56 62 63 52 38 29 24 22 17 13 9 10 13 19 35 27 17 17 16 23
29 37 51 49 51 54 59 59 69 91 61 44 38 50 62 64 59 42 29 26 21 15 10 10 13 22 32 19 15 26 25 27
28 31 40 45 61 60 57 65 62 61 56 40 30 34 54 61 62 56 41 30 27 19 12 11 11 14 28 17 15 16 16 33
26 27 32 32 37 43 42 52 56 52 54 51 33 30 43 52 62 68 61 39 29 23 15 12 11 15 29 20 17 18 19 44
25 22 20 17 16 19 20 22 30 30 33 41 44 52 45 56 66 68 78 57 38 26 18 13 14 20 22 12 18 24 21 34
10 7 7 6 6 5 4 5 6 17 29 41 52 99 68 84 75 73 79 71 52 29 19 14 19 26 19 14 21 27 24 17
6 6 6 5 5 4 4 4 6 27 37 60 60 80 79 100 85 78 84 75 60 30 21 20 28 28 18 18 22 22 16 14
7 6 4 4 3 3 3 2 4 8 56 74 81 99 97 94 88 87 88 88 63 37 24 30 34 26 21 20 21 20 14 15
8 8 6 4 2 2 2 4 8 6 14 65 75 88 98 94 95 97 96 97 66 58 35 43 36 24 23 21 21 15 10 16
13 5 3 2 2 4 12 22 20 17 31 67 79 83 90 93 95 93 86 94 66 80 38 49 36 29 27 23 28 16 10 14
3 3 3 5 14 40 38 33 32 41 50 69 80 79 100 89 84 100 98 89 60 100 40 48 44 34 30 24 18 18 25 18
3 7 22 52 61 52 48 44 41 52 60 81 83 81 98 96 80 81 80 91 94 95 83 70 52 31 31 19 19 15 32 25
21 43 56 71 61 55 54 46 50 63 91 92 93 85 99 92 85 83 78 91 97 93 98 94 36 34 21 13 12 19 40 41
50 63 73 76 82 63 63 62 73 94 100 98 99 97 96 88 73 74 91 96 96 98 93 48 38 32 15 10 13 35 44 56

GFSFLT2_500_rhum_108.txt.gz
RH
15 15 16 17 21 25 27 28 28 26 28 29 29 29 27 23 22 21 22 25 24 25 25 22 24 11 13 18 19 18 20 34
18 18 17 17 17 19 21 23 26 28 28 28 31 30 30 27 25 22 22 23 24 24 29 28 24 19 14 22 18 16 26 38
22 20 25 24 23 20 20 21 25 26 27 31 34 34 33 34 34 30 26 23 24 23 25 29 31 32 24 14 9 15 22 30
26 24 24 28 32 26 20 24 28 29 30 32 37 38 38 36 40 39 27 26 25 24 24 23 25 28 33 24 19 18 12 26
39 34 29 28 32 32 28 25 29 33 34 34 38 46 43 46 59 57 39 32 25 24 26 24 23 21 19 17 23 20 13 20
34 34 35 34 31 29 28 27 31 36 39 39 40 43 48 52 56 60 54 47 36 29 26 27 27 25 22 24 24 35 42 36
37 36 56 41 36 55 54 52 55 52 51 51 52 50 47 43 52 55 59 52 46 39 39 32 31 28 28 24 24 40 44 47
42 41 38 37 37 40 50 56 66 75 72 49 54 51 55 50 38 50 52 49 46 43 46 41 43 37 38 44 40 36 41 41
39 47 40 42 40 40 44 53 41 69 75 37 50 46 47 55 42 39 64 55 42 39 37 34 40 45 44 37 32 34 30 35
38 40 42 38 37 37 37 39 36 35 46 45 46 66 47 46 45 42 74 66 47 48 37 19 18 24 31 20 35 34 27 25
34 34 34 36 33 33 33 32 31 31 34 46 43 52 65 45 37 27 42 51 37 37 45 21 15 14 20 12 27 44 34 20
28 32 35 36 36 34 32 30 29 28 26 26 23 31 47 38 20 10 20 34 20 18 56 38 18 18 14 12 16 32 38 21
31 32 36 35 33 31 28 25 23 20 14 9 7 7 6 22 30 23 5 8 75 35 46 41 28 35 24 10 14 32 40 27
33 33 35 34 31 26 21 15 10 9 8 7 6 6 22 48 34 30 29 21 45 55 49 60 43 59 57 33 16 32 53 31
34 38 37 34 30 25 21 16 12 11 8 8 9 11 10 11 8 10 32 64 98 84 100 81 54 47 53 48 20 39 60 36
40 42 36 28 26 24 19 19 18 20 21 13 8 5 6 5 4 4 6 29 63 73 97 98 68 50 52 60 40 61 64 36
43 42 37 29 23 22 27 27 24 12 7 4 3 3 6 4 11 3 6 26 32 48 87 93 65 60 60 94 59 77 71 34
43 39 31 25 25 26 28 23 10 4 3 3 4 10 9 45 81 14 7 11 16 49 69 92 70 44 73 88 69 76 76 32
40 32 25 29 28 29 20 5 5 6 4 10 32 34 39 60 97 80 40 22 23 21 32 100 95 66 44 90 93 100 70 31
32 30 27 27 30 19 9 4 5 3 18 47 55 46 46 52 97 91 38 29 34 46 42 100 82 69 66 58 65 100 73 36

GFSFLT2_500_rhum_114.txt.gz
RH
30 27 28 26 23 20 18 19 20 20 21 20 19 17 19 21 19 18 18 21 21 21 21 22 26 26 26 25 26 24 13 15
33 31 29 28 27 26 23 20 20 21 21 21 20 19 20 20 19 18 19 22 22 21 24 24 26 26 27 29 30 29 26 19
38 36 37 39 38 32 26 25 24 24 25 26 25 22 22 21 21 20 21 23 24 24 26 26 27 28 25 26 25 23 28 31
28 35 40 42 44 44 41 33 28 27 31 33 35 31 25 23 22 24 23 22 21 24 26 28 32 32 28 24 23 22 22 24
34 32 38 42 48 50 50 47 42 36 34 35 39 38 34 27 27 29 28 26 23 22 25 28 37 38 35 30 24 23 21 21
40 40 50 48 48 51 52 51 51 46 41 41 42 40 35 31 29 35 34 31 26 23 24 29 31 38 45 40 33 26 24 23
54 49 48 73 56 56 53 50 54 71 59 47 38 39 41 43 46 57 50 45 36 31 26 25 25 31 43 47 43 37 29 27
27 46 53 60 59 57 61 58 67 68 63 75 78 62 66 69 81 90 86 67 45 35 32 31 29 29 39 47 46 42 44 35
9 28 54 74 74 60 59 63 65 67 64 67 74 87 95 86 82 84 96 88 44 34 34 34 32 34 41 50 51 44 38 43
17 36 63 67 65 61 62 57 54 56 59 68 73 61 65 88 94 96 96 91 50 38 37 34 34 38 53 68 70 50 38 30
8 37 64 57 54 58 58 55 50 45 43 49 55 63 81 66 75 76 92 93 94 57 39 35 35 41 53 81 76 60 48 31
11 42 58 77 75 61 55 56 50 45 41 40 40 39 43 49 52 54 63 72 74 97 83 38 28 33 43 57 68 63 58 40
25 58 77 90 89 76 60 56 50 37 34 33 32 32 33 32 35 32 30 42 58 74 90 100 98 85 35 42 37 40 53 46
38 56 89 86 80 74 68 58 46 32 30 35 33 29 29 30 28 26 24 22 25 48 67 95 99 97 97 96 80 66 50 49
58 51 76 91 88 78 65 57 48 37 33 34 34 32 30 26 25 23 22 22 19 17 28 52 76 67 74 94 96 95 87 64
76 63 100 98 90 80 68 59 49 40 36 34 33 30 28 27 25 25 24 22 22 20 20 34 53 49 54 75 98 97 95 96
95 100 98 97 92 83 73 60 46 40 38 35 30 29 30 28 28 26 23 24 24 25 24 19 26 44 49 60 79 97 91 96
85 97 96 99 90 82 82 79 57 44 40 37 32 29 29 30 30 26 24 20 18 10 6 5 6 13 23 33 54 69 66 80
98 97 96 97 85 82 86 78 75 55 44 38 33 31 34 34 29 24 13 11 9 6 6 4 16 11 19 40 79 86 93 62
96 99 98 93 99 75 44 47 50 47 51 61 42 37 33 30 22 8 6 6 5 3 3 10 50 50 58 94 97 97 98 84

GFSFLT2_500_rhum_117.txt.gz
RH
32 30 31 30 31 30 30 29 26 23 20 20 20 19 18 20 24 25 24 24 26 28 26 26 26 24 23 21 20 24 27 26
40 38 33 33 30 29 30 29 30 29 26 24 23 22 22 23 25 27 26 28 31 31 28 28 29 28 24 23 20 21 28 30
37 35 36 34 35 32 34 37 38 33 29 27 26 28 28 27 27 26 28 32 34 34 33 33 33 35 29 28 24 20 23 28
40 42 41 36 34 36 38 41 43 45 44 38 31 30 33 34 35 33 30 34 39 39 40 43 40 34 36 32 26 24 22 25
45 44 46 49 44 40 41 44 49 51 50 47 42 37 36 38 38 38 37 35 41 44 47 47 45 37 39 38 32 27 24 23
13 19 42 56 57 50 60 52 53 54 54 52 50 46 42 42 43 43 39 35 42 48 51 52 54 47 40 41 39 37 33 27
12 20 23 58 72 78 76 77 65 59 54 53 58 65 57 44 43 42 42 42 45 54 56 56 54 48 39 37 44 39 35 35
6 6 10 27 64 87 80 74 69 66 65 66 65 70 65 67 70 64 54 58 57 74 74 65 59 50 45 44 45 49 40 36
7 7 5 7 16 60 87 86 74 69 73 75 81 83 80 77 82 82 78 92 73 91 94 83 62 50 49 44 48 48 36 38
5 4 5 5 7 14 50 73 77 73 71 74 79 89 88 84 78 69 80 92 96 96 96 94 73 41 42 53 49 38 35 34
3 3 4 5 10 15 14 39 70 76 68 66 68 78 85 86 92 94 90 81 100 94 97 99 94 60 41 57 50 43 41 42
5 3 4 6 10 16 19 29 55 80 71 63 60 59 57 62 70 71 78 65 85 95 98 86 86 96 96 68 54 50 36 37
5 4 5 7 17 28 28 42 53 79 78 70 61 55 50 46 47 54 52 61 59 61 57 51 58 100 99 94 96 96 95 95
40 28 26 27 28 50 76 80 81 84 87 82 71 60 49 41 40 39 38 35 35 38 29 28 37 47 72 96 97 97 94 96
84 88 92 84 77 77 51 68 98 98 93 85 71 60 44 37 36 36 35 31 29 28 26 27 25 34 31 48 57 67 70 72
100 100 87 74 94 98 98 80 75 97 95 78 65 55 43 37 35 32 32 30 26 25 23 21 16 18 19 34 40 46 45 50
99 98 86 78 80 95 92 96 100 100 95 80 66 57 45 37 34 32 31 28 26 27 24 22 20 17 18 16 20 27 33 40
100 94 98 63 96 99 98 95 98 96 83 74 58 48 42 37 33 31 31 29 29 27 27 26 25 24 24 21 16 15 21 25
100 100 95 95 80 81 97 99 99 97 93 81 71 42 34 31 35 36 37 32 31 29 30 29 26 23 17 9 7 7 6 8
100 99 98 97 85 94 95 97 70 98 96 96 77 78 60 37 37 36 39 36 35 34 30 26 18 13 9 8 7 5 12 26